This demonstration page uses our WeatherBlox Daily Observations layout. Learn more.

Left ArrowRight Arrow

38.89511, -77.03637

Hourly Observations for January 12, 2019

Temp ( °F °C ) Dew Point ( °F °C ) Humidity (%) Winds ( mph kmh ) Pressure ( in mb ) Visibility ( mi km ) Precip ( " mm )
12:52 am 00:52 Cloudy 30 -1.1 15 -9.4 54 54 NNW 6 9 30.47 1032 10 16 0.00 0.00
1:52 am 01:52 Cloudy 31 -0.6 15 -9.4 52 52 NNW 5 7 30.48 1032 10 16 0.00 0.00
2:52 am 02:52 Cloudy 31 -0.6 15 -9.4 52 52 N 3 6 30.50 1033 10 16 0.00 0.00
3:52 am 03:52 Cloudy 31 -0.6 14 -10 49 49 NNE 6 9 30.49 1033 10 16 0.00 0.00
4:52 am 04:52 Cloudy 31 -0.6 14 -10 49 49 NNE 3 6 30.50 1033 10 16 0.00 0.00
5:52 am 05:52 Cloudy 31 -0.6 15 -9.4 52 52 NE 5 7 30.51 1033 10 16 0.00 0.00
6:52 am 06:52 Cloudy 31 -0.6 16 -8.9 54 54 ENE 3 6 30.52 1034 10 16 0.00 0.00
7:52 am 07:52 Cloudy 31 -0.6 16 -8.9 54 54 Calm 30.53 1034 10 16 0.00 0.00
8:52 am 08:52 Cloudy 33 0.6 16 -8.9 49 49 SE 6 9 30.55 1035 10 16 0.00 0.00
9:52 am 09:52 Cloudy 35 1.7 16 -8.9 46 46 S 5 7 30.58 1035 10 16 0.00 0.00
10:52 am 10:52 Cloudy 36 2.2 13 -10.6 39 39 S 6 9 30.57 1035 10 16 0.00 0.00
11:52 am 11:52 Cloudy 36 2.2 14 -10 40 40 S 7 11 30.53 1034 10 16 0.00 0.00
12:52 pm 12:52 Cloudy 37 2.8 13 -10.6 37 37 SSW 6 9 30.51 1033 10 16 0.00 0.00
1:52 pm 13:52 Cloudy 36 2.2 15 -9.4 42 42 S 6 9 30.51 1033 10 16 0.00 0.00
2:15 pm 14:15 Cloudy with Light Snow 36 2.2 16 -8.9 44 44 S 8 13 30.53 1034 10 16 0.00 0.03
2:52 pm 14:52 Cloudy with Light Snow 35 1.7 19 -7.2 52 52 SSE 5 7 30.51 1033 9 14 0.00 0.03
3:52 pm 15:52 Cloudy with Light Snow 34 1.1 20 -6.7 56 56 SE 6 9 30.50 1033 6 10 0.00 0.03
4:52 pm 16:52 Cloudy with Light Snow 33 0.6 23 -5 66 66 Calm 30.50 1033 8 13 0.00 0.03
5:52 pm 17:52 Cloudy with Light Snow 32 0 25 -3.9 75 75 ENE 8 13 30.50 1033 5 8 0.00 0.03
6:06 pm 18:06 Cloudy with Light Snow 32 0 25 -3.9 75 75 ENE 8 13 30.50 1033 3 4 0.00 0.03
6:14 pm 18:14 Cloudy with Light Snow 32 0 26 -3.3 79 79 E 7 11 30.50 1033 2 3 0.00 0.03
6:52 pm 18:52 Cloudy with Light Snow 31 -0.6 27 -2.8 85 85 ESE 6 9 30.51 1033 2 2 0.02 0.51
7:12 pm 19:12 Cloudy with Light Snow 31 -0.6 26 -3.3 82 82 E 5 7 30.50 1033 2 3 0.01 0.25
7:30 pm 19:30 Cloudy with Light Snow 30 -1.1 26 -3.3 85 85 ESE 5 7 30.53 1034 2 3 0.01 0.25
7:52 pm 19:52 Cloudy with Light Snow 30 -1.1 26 -3.3 85 85 SE 5 7 30.51 1033 2 2 0.03 0.76
7:58 pm 19:58 Cloudy with Light Snow 30 -1.1 26 -3.3 85 85 SE 6 9 30.53 1034 2 3 0.00 0.03
8:01 pm 20:01 Cloudy with Light Snow 30 -1.1 26 -3.3 85 85 SE 5 7 30.53 1034 3 5 0.00 0.03
8:21 pm 20:21 Cloudy with Light Snow 30 -1.1 26 -3.3 85 85 E 5 7 30.50 1033 3 4 0.00 0.03
8:30 pm 20:30 Cloudy with Light Snow 30 -1.1 26 -3.3 85 85 ESE 5 7 30.50 1033 3 4 0.01 0.25
8:52 pm 20:52 Cloudy with Light Snow 30 -1.1 26 -3.3 85 85 ESE 6 9 30.50 1033 2 3 0.01 0.25
9:18 pm 21:18 Mostly Cloudy with Light Snow 30 -1.1 26 -3.3 85 85 SE 8 13 30.50 1033 1 2 0.02 0.51
9:40 pm 21:40 Cloudy with Light Snow 30 -1.1 27 -2.8 88 88 SSE 5 7 30.50 1033 1 2 0.04 1.02
9:45 pm 21:45 Cloudy with Light Snow 30 -1.1 27 -2.8 88 88 SE 5 7 30.50 1033 2 2 0.04 1.02
9:52 pm 21:52 Cloudy with Light Snow 30 -1.1 27 -2.8 88 88 SE 5 7 30.50 1033 2 3 0.04 1.02
9:56 pm 21:56 Cloudy with Light Snow 30 -1.1 27 -2.8 88 88 SSE 3 6 30.50 1033 2 3 0.00 0.03
10:08 pm 22:08 Cloudy with Light Snow 30 -1.1 27 -2.8 88 88 SSE 5 7 30.50 1033 2 3 0.00 0.03
10:19 pm 22:19 Cloudy with Light Snow 30 -1.1 27 -2.8 88 88 SSE 3 6 30.50 1033 2 3 0.01 0.25
10:32 pm 22:32 Cloudy with Light Snow 30 -1.1 27 -2.8 88 88 Calm 30.50 1033 3 5 0.01 0.25
10:50 pm 22:50 Cloudy with Light Snow 30 -1 27 -3 86 86 ESE 3 6 30.50 1033 4 6 0.01 0.25
10:52 pm 22:52 Cloudy with Light Snow 30 -1.1 26 -3.3 85 85 ESE 3 6 30.49 1032 3 5 0.01 0.25
11:04 pm 23:04 Cloudy with Light Snow 30 -1.1 26 -3.3 85 85 ENE 3 6 30.48 1032 3 4 0.00 0.03
11:08 pm 23:08 Cloudy with Light Snow 31 -0.6 26 -3.3 82 82 ENE 5 7 30.48 1032 2 3 0.01 0.25
11:33 pm 23:33 Cloudy with Light Snow 31 -0.6 27 -2.8 85 85 ENE 3 6 30.48 1032 2 3 0.01 0.25
11:39 pm 23:39 Cloudy with Light Snow 31 -0.6 27 -2.8 85 85 Calm 30.48 1032 2 3 0.01 0.25
11:47 pm 23:47 Cloudy with Light Snow 30 -1 27 -3 86 86 E 3 6 30.48 1032 2 3 0.02 0.51
11:52 pm 23:52 Cloudy with Light Snow 31 -0.6 27 -2.8 85 85 ENE 5 7 30.47 1032 2 3 0.02 0.51
11:58 pm 23:58 Cloudy with Light Snow 31 -0.6 27 -2.8 85 85 ENE 5 7 30.48 1032 3 4 0.00 0.03

Powered by AerisWeather